Change the Weather History Date:

Tuesday, August 26, 2014

  Actual Average Record
Temperature  
Mean Temperature 80 °F 81 °F  
Max Temperature 93 °F 92 °F 99 °F (2011)
Min Temperature 67 °F 70 °F 59 °F (1966)
Degree Days  
Heating Degree Days 0 0  
Month to date heating degree days 0 0  
Since 1 June heating degree days 0 0  
Since 1 July heating degree days 0 0  
Cooling Degree Days 15 16  
Month to date cooling degree days 467 434  
Year to date cooling degree days 1789 1794  
Since 1 June cooling degree days 1413 1379  
Growing Degree Days 28 (Base 50)    
Moisture  
Dew Point 66 °F    
Average Humidity 67    
Maximum Humidity 97    
Minimum Humidity 36    
Precipitation  
Precipitation 0.00 in 0.16 in 2.27 in (1999)
Month to date precipitation 1.03 3.98  
Year to date precipitation 36.71 41.41  
Sea Level Pressure  
Sea Level Pressure 30.00 in    
Wind  
Wind Speed 4 mph (ENE)    
Max Wind Speed 15 mph    
Max Gust Speed 20 mph    
Visibility 8 miles    
Events      
T = Trace of Precipitation, MM = Missing Value Source: NWS Daily Summary

Daily Weather History Graph

Daily Weather History Graph

Search for Another Location

Airport or City:

Trip Planner

Search our weather history database for the weather conditions in past years. The results will help you decide how hot, cold, wet, or windy it might be!

Date:

Astronomy

Aug. 26, 2014 Rise Set
Actual Time 6:29 AM CDT 7:27 PM CDT
Civil Twilight 6:04 AM CDT 7:52 PM CDT
Nautical Twilight 5:34 AM CDT 8:22 PM CDT
Astronomical Twilight 5:04 AM CDT 8:52 PM CDT
Moon 7:23 AM CDT (8/26) 7:57 PM CDT (8/26)
Length of Visible Light 13h 48m
Length of Day
12h 58m
New Moon, 1% of the Moon is Illuminated
Aug 26
New Moon
Sep 2
First Quarter
Sep 8
Full
Sep 15
Last Quarter
Sep 24
New

Hourly Weather History & Observations

Time (CDT) Temp. Heat Index Dew Point Humidity Pressure Visibility Wind Dir Wind Speed Gust Speed Precip Events Conditions
12:53 AM 73.9 °F - 70.0 °F 87% 29.97 in 10.0 mi Calm Calm - N/A   Clear
1:53 AM 72.0 °F - 69.1 °F 91% 29.97 in 9.0 mi Calm Calm - N/A   Clear
2:53 AM 71.1 °F - 69.1 °F 93% 29.96 in 9.0 mi Calm Calm - N/A   Clear
4:09 AM 69.1 °F - 68.0 °F 96% 29.98 in 1.8 mi WNW 3.5 mph - N/A   Clear
4:48 AM 69.8 °F - 66.2 °F 88% 29.98 in 3.0 mi Calm Calm - N/A   Clear
4:53 AM 69.1 °F - 66.9 °F 93% 29.98 in 6.0 mi Calm Calm - N/A   Clear
5:31 AM 68.0 °F - 66.0 °F 93% 30.00 in 1.8 mi Calm Calm - N/A   Clear
5:40 AM 68.0 °F - 66.0 °F 93% 30.00 in 3.0 mi Calm Calm - N/A   Clear
5:53 AM 68.0 °F - 66.0 °F 93% 30.00 in 6.0 mi Calm Calm - N/A   Clear
6:38 AM 68.0 °F - 66.0 °F 93% 30.02 in 1.2 mi Calm Calm - N/A   Clear
6:41 AM 66.9 °F - 66.0 °F 97% 30.02 in 4.0 mi Calm Calm - N/A   Clear
6:53 AM 68.0 °F - 66.0 °F 93% 30.01 in 10.0 mi Calm Calm - N/A   Clear
7:53 AM 73.9 °F - 66.0 °F 76% 30.04 in 10.0 mi NE 3.5 mph - N/A   Clear
8:53 AM 78.1 °F - 64.9 °F 64% 30.04 in 10.0 mi East 6.9 mph - N/A   Clear
10:53 AM 84.9 °F 86.1 °F 64.0 °F 49% 30.06 in 10.0 mi ENE 10.4 mph - N/A   Clear
11:53 AM 88.0 °F 88.7 °F 63.0 °F 43% 30.05 in 10.0 mi East 8.1 mph 17.3 mph N/A   Clear
12:53 PM 90.0 °F 90.0 °F 61.0 °F 38% 30.03 in 10.0 mi SE 9.2 mph - N/A   Partly Cloudy
1:53 PM 91.0 °F 90.9 °F 61.0 °F 36% 30.01 in 10.0 mi ENE 9.2 mph - N/A   Clear
2:53 PM 91.9 °F 91.8 °F 61.0 °F 35% 29.99 in 10.0 mi NE 10.4 mph - N/A   Scattered Clouds
4:53 PM 91.0 °F 91.5 °F 62.1 °F 38% 29.98 in 10.0 mi East 11.5 mph - N/A   Clear
5:53 PM 91.0 °F 91.9 °F 63.0 °F 39% 29.97 in 10.0 mi East 9.2 mph - N/A   Clear
6:53 PM 88.0 °F 89.3 °F 64.0 °F 45% 29.97 in 10.0 mi East 5.8 mph - N/A   Clear
7:53 PM 81.0 °F 83.3 °F 66.9 °F 62% 29.98 in 10.0 mi Calm Calm - N/A   Clear
8:53 PM 78.1 °F - 66.9 °F 68% 29.99 in 10.0 mi Calm Calm - N/A   Clear
9:53 PM 75.9 °F - 68.0 °F 76% 30.00 in 10.0 mi Calm Calm - N/A   Clear
10:53 PM 73.9 °F - 68.0 °F 82% 30.01 in 10.0 mi Calm Calm - N/A   Mostly Cloudy
11:53 PM 75.0 °F - 68.0 °F 79% 30.01 in 10.0 mi Calm Calm - N/A   Clear